カタログに戻る

STARLINK-32350

運用中通信VLEO
NORAD 61063·PAYLOAD·🇺🇸 United States

打ち上げ Sep 13, 2024 から Vandenberg Space Force Base

Loading…

次のパス (今後24時間)

TLE

最新Source: CelesTrak SupGP

元期: Sep 15, 2026, 03:08 UTC

1 61063C 24164P   26258.13104167  .00005131  00000+0  16497-3 0  2586
2 61063  53.1591 289.8203 0001280  85.2452 183.6081 15.31704952    16

AllMySatでSTARLINK-32350をリアルタイム追跡

Download on the App Store